DW2770 Cefalu IT current weather conditions

sailwx.info

Wind from 180 at 1 knots gusting 6

Air temperature 24.4° C
Dewpoint 19.7° C

Last reported at 2015-Sep-01 22:10 UTC.
Time now 2015-Sep-02 00:23 UTC

Location: N 38°02' E 014°02'.
View on Google Maps.

See reports from other nearby stations

  
Tides and Currents Weather Stations Pressure Air Temp Water Temp Dewpoint Dewpoint Depression Visibility Wind Speed Wind Dir Waves Ship Positions
date/time (UTC)wind fromknots sea level pressurealtimeterstation pressurevisibilityair tempwater tempwave heightnotes
2015-Sep-01 22:10 180 1 gusting 6 24.4
2015-Sep-01 22:00 180 4 gusting 4 23.9
2015-Sep-01 21:50 169 1 gusting 2 23.9
2015-Sep-01 21:40 202 2 gusting 4 23.9
2015-Sep-01 21:20 202 5 gusting 5 24.4
2015-Sep-01 21:10 180 1 gusting 4 24.4
2015-Sep-01 21:00 202 3 gusting 4 24.4
2015-Sep-01 20:40 202 2 gusting 5 24.4
2015-Sep-01 20:30 135 1 gusting 1 24.4
2015-Sep-01 20:10 202 1 gusting 2 24.4
2015-Sep-01 20:00 180 1 gusting 2 25.0
2015-Sep-01 19:30 180 2 gusting 4 25.0
2015-Sep-01 19:20 202 2 gusting 2 25.0
2015-Sep-01 19:10 202 2 gusting 5 25.0
2015-Sep-01 18:50 202 25.6
2015-Sep-01 18:40 180 0 gusting 1 25.6
2015-Sep-01 18:30 158 26.1
2015-Sep-01 18:20 202 0 gusting 4 26.1
2015-Sep-01 18:10 181 3 gusting 4 26.1
2015-Sep-01 18:00 225 1 gusting 2 26.1
2015-Sep-01 17:50 202 2 gusting 2 26.7
2015-Sep-01 13:50 068 2 gusting 4 27.2
2015-Sep-01 13:40 093 4 gusting 5 27.2
2015-Sep-01 13:30 068 1 gusting 5 27.8
2015-Sep-01 13:20 088 2 gusting 6 27.2
2015-Sep-01 13:10 041 3 gusting 4 27.8
2015-Sep-01 13:00 068 2 gusting 5 27.2
2015-Sep-01 12:50 089 1 gusting 5 27.2
2015-Sep-01 12:40 079 5 gusting 5 27.2
2015-Sep-01 12:30 045 27.2
2015-Sep-01 12:20 088 2 gusting 5 27.2
2015-Sep-01 12:10 057 1 gusting 2 27.2
2015-Sep-01 12:00 090 1 gusting 5 26.7
2015-Sep-01 11:50 045 2 gusting 2 26.7
2015-Sep-01 11:40 053 2 gusting 2 26.7
2015-Sep-01 11:30 068 2 gusting 6 26.7
2015-Sep-01 11:20 068 4 gusting 6 26.7
2015-Sep-01 11:10 077 2 gusting 5 27.2
2015-Sep-01 11:00 068 5 gusting 5 27.2
2015-Sep-01 10:50 022 1 gusting 2 28.3
2015-Sep-01 10:40 304 2 gusting 2 28.3
2015-Sep-01 10:30 292 2 gusting 5 27.8
2015-Sep-01 10:20 226 2 gusting 4 27.8
2015-Sep-01 10:12 294 2 gusting 2 27.8
2015-Sep-01 10:00 315 0 gusting 2 27.8
2015-Sep-01 09:50 312 1 gusting 4 27.2
2015-Sep-01 09:40 288 0 gusting 6 27.2
2015-Sep-01 09:30 292 4 gusting 4 27.2
2015-Sep-01 09:20 251 1 gusting 2 27.2
2015-Sep-01 09:10 292 2 gusting 2 27.2
2015-Sep-01 09:00 270 0 gusting 2 27.2
2015-Sep-01 08:50 270 0 gusting 1 27.2
2015-Sep-01 08:40 310 0 gusting 2 26.7
2015-Sep-01 08:30 315 1 gusting 2 26.7
2015-Sep-01 08:20 315 26.7
2015-Sep-01 08:10 073 1 gusting 2 26.7
2015-Sep-01 02:20 180 1 gusting 2 23.9
2015-Sep-01 02:10 180 1 gusting 2 23.9
2015-Sep-01 02:00 180 2 gusting 4 23.9
2015-Sep-01 01:50 158 0 gusting 2 23.9
2015-Sep-01 01:40 181 23.9
2015-Sep-01 01:30 183 23.9
2015-Sep-01 01:20 180 1 gusting 5 23.9
2015-Sep-01 01:10 199 4 gusting 5 23.9
2015-Sep-01 01:00 199 2 gusting 4 23.9
2015-Sep-01 00:50 158 0 gusting 2 23.9
2015-Sep-01 00:40 181 23.9
2015-Sep-01 00:30 202 2 gusting 2 23.9
2015-Sep-01 00:20 180 1 gusting 4 23.9
2015-Sep-01 00:10 180 0 gusting 2 24.4
2015-Sep-01 00:00 184 2 gusting 2 24.4
2015-Aug-31 23:50 202 0 gusting 2 23.9
2015-Aug-31 23:40 181 1 gusting 2 23.9
2015-Aug-31 23:30 202 0 gusting 2 24.4
2015-Aug-31 23:20 180 2 gusting 4 24.4
2015-Aug-31 23:10 182 2 gusting 4 24.4
2015-Aug-31 23:00 180 1 gusting 4 23.9
2015-Aug-31 22:50 180 3 gusting 4 24.4
2015-Aug-31 22:40 199 1 gusting 2 24.4
2015-Aug-31 22:30 186 1 gusting 2 24.4
2015-Aug-31 22:20 180 2 gusting 2 24.4
2015-Aug-31 22:10 180 1 gusting 5 24.4
2015-Aug-31 22:00 188 4 gusting 4 24.4
2015-Aug-31 21:50 202 1 gusting 4 24.4
2015-Aug-31 21:40 158 4 gusting 5 24.4
2015-Aug-31 21:30 196 1 gusting 2 25.0
2015-Aug-31 21:20 158 1 gusting 4 25.0
2015-Aug-31 21:10 202 1 gusting 2 25.0
2015-Aug-31 21:00 180 0 gusting 4 25.0
2015-Aug-31 20:50 180 4 gusting 4 25.0
2015-Aug-31 20:40 180 1 gusting 4 24.4
2015-Aug-31 20:30 202 2 gusting 2 25.0
2015-Aug-31 20:25 180 1 gusting 6 25.0
2015-Aug-31 20:10 180 1 gusting 6 25.0
2015-Aug-31 20:00 202 6 gusting 6 25.0
2015-Aug-31 19:50 202 3 gusting 5 25.0
2015-Aug-31 19:40 202 1 gusting 2 25.0
2015-Aug-31 19:30 202 0 gusting 2 25.0
2015-Aug-31 19:20 180 1 gusting 2 25.0
2015-Aug-31 19:10 135 2 gusting 2 25.6
2015-Aug-31 19:00 180 0 gusting 2 25.6
2015-Aug-31 18:50 180 1 gusting 6 25.6
2015-Aug-31 18:40 180 4 gusting 6 25.6
2015-Aug-31 18:30 193 25.6
2015-Aug-31 18:20 202 0 gusting 0 25.6
2015-Aug-31 18:15 135 25.6
2015-Aug-31 18:00 045 26.1
2015-Aug-31 17:50 068 26.1
2015-Aug-31 17:40 068 26.1
2015-Aug-31 17:30 068 0 gusting 1 26.7
2015-Aug-31 17:20 090 1 gusting 2 26.7
2015-Aug-31 17:10 112 2 gusting 4 26.7
2015-Aug-31 17:00 068 2 gusting 4 26.7
2015-Aug-31 16:50 068 1 gusting 2 26.7
2015-Aug-31 16:40 090 2 gusting 2 26.7
2015-Aug-31 16:30 083 2 gusting 4 26.7
2015-Aug-31 16:20 045 2 gusting 6 26.7
2015-Aug-31 16:10 068 4 gusting 6 27.2
2015-Aug-31 16:00 068 1 gusting 2 27.2
2015-Aug-31 15:50 045 1 gusting 4 27.2
2015-Aug-31 15:40 068 2 gusting 4 27.8
2015-Aug-31 15:35 029 1 gusting 7 27.8
2015-Aug-31 15:25 085 4 gusting 6 27.8
2015-Aug-31 15:10 090 2 gusting 5 27.2
2015-Aug-31 15:00 045 5 gusting 5 27.2
2015-Aug-31 14:50 068 2 gusting 4 27.8
2015-Aug-31 14:40 068 2 gusting 4 27.8
2015-Aug-31 14:32 090 4 gusting 4 27.8
2015-Aug-31 14:20 074 4 gusting 5 27.8
2015-Aug-31 14:10 090 4 gusting 5 27.8
2015-Aug-31 14:00 068 4 gusting 5 28.3
2015-Aug-31 13:50 088 4 gusting 4 28.3
2015-Aug-31 13:40 068 2 gusting 5 27.8
2015-Aug-31 13:32 068 2 gusting 6 28.3
2015-Aug-31 13:20 053 5 gusting 6 28.3
2015-Aug-31 13:10 068 6 gusting 8 28.3
2015-Aug-31 13:00 062 1 gusting 4 28.3
2015-Aug-31 12:50 051 2 gusting 6 27.8
2015-Aug-31 12:40 090 3 gusting 6 28.3
2015-Aug-31 12:30 068 3 gusting 5 28.3
2015-Aug-31 12:20 104 2 gusting 6 28.3
2015-Aug-31 11:30 084 1 gusting 4 28.3
2015-Aug-31 11:20 086 2 gusting 5 28.3
2015-Aug-31 11:10 045 4 gusting 6 28.3
2015-Aug-31 11:00 090 0 gusting 4 28.3
2015-Aug-31 10:50 045 2 gusting 4 27.8
2015-Aug-31 10:40 068 27.8
2015-Aug-31 10:30 068 5 gusting 6 27.8
2015-Aug-31 10:20 068 4 gusting 5 27.2
2015-Aug-31 10:10 090 5 gusting 6 27.2
2015-Aug-31 10:00 068 4 gusting 5 27.2
2015-Aug-31 09:50 068 4 gusting 6 27.2
2015-Aug-31 09:40 068 2 gusting 4 27.8
2015-Aug-31 09:30 068 1 gusting 5 27.8
2015-Aug-31 09:20 045 5 gusting 5 27.2
2015-Aug-31 09:10 068 4 gusting 5 27.2
2015-Aug-31 09:00 090 2 gusting 4 27.2
2015-Aug-31 08:50 068 4 gusting 4 27.2
2015-Aug-31 08:41 090 2 gusting 4 27.2
2015-Aug-31 08:30 068 2 gusting 5 27.2
2015-Aug-31 08:20 068 4 gusting 4 27.2
2015-Aug-31 08:10 068 4 gusting 4 27.2
2015-Aug-31 08:00 022 1 gusting 2 27.2